Time,TemperatureF,DewpointF,PressureIn,WindDirection,WindDirectionDegrees,WindSpeedMPH,WindSpeedGustMPH,Humidity,HourlyPrecipIn,Conditions,Clouds,dailyrainin,SoftwareType,DateUTC
2013-08-23 00:13:00,-999.0,-99.9,30.05,ESE,117,7.0,9.0,-999,-99.99,,,-99.99,,2013-08-23 04:13:00,
2013-08-23 00:24:00,-999.0,-99.9,30.05,ESE,117,7.0,9.0,-999,-99.99,,,-99.99,,2013-08-23 04:24:00,
2013-08-23 00:54:00,-999.0,-99.9,30.05,ESE,111,5.0,9.0,-999,-99.99,,,-99.99,,2013-08-23 04:54:00,
2013-08-23 01:04:00,-999.0,-99.9,30.05,ESE,105,5.0,9.0,-999,-99.99,,,-99.99,,2013-08-23 05:04:00,
2013-08-23 01:42:00,-999.0,-99.9,30.03,East,88,9.0,11.0,-999,-99.99,,,-99.99,,2013-08-23 05:42:00,
2013-08-23 01:53:00,-999.0,-99.9,30.03,East,91,9.0,11.0,-999,-99.99,,,-99.99,,2013-08-23 05:53:00,
2013-08-23 02:12:00,-999.0,-99.9,30.03,East,86,8.0,11.0,-999,-99.99,,,-99.99,,2013-08-23 06:12:00,
2013-08-23 02:42:00,-999.0,-99.9,30.02,East,82,8.0,11.0,-999,-99.99,,,-99.99,,2013-08-23 06:42:00,
2013-08-23 02:52:00,80.0,-99.9,30.02,North,-999,-999.0,-999.0,-999,-99.99,,,-99.99,,2013-08-23 06:52:00,
2013-08-23 03:01:00,-999.0,-99.9,30.01,East,100,5.0,10.0,-999,-99.99,,,-99.99,,2013-08-23 07:01:00,
2013-08-23 03:22:00,-999.0,-99.9,30.01,ESE,104,6.0,11.0,-999,-99.99,,,-99.99,,2013-08-23 07:22:00,
2013-08-23 03:53:00,-999.0,-99.9,30.00,ESE,108,5.0,9.0,-999,-99.99,,,-99.99,,2013-08-23 07:53:00,
2013-08-23 04:02:00,-999.0,-99.9,30.00,East,93,8.0,11.0,-999,-99.99,,,-99.99,,2013-08-23 08:02:00,
2013-08-23 04:13:00,-999.0,-99.9,30.00,East,90,8.0,11.0,-999,-99.99,,,-99.99,,2013-08-23 08:13:00,
2013-08-23 04:22:00,-999.0,-99.9,30.00,East,98,5.0,9.0,-999,-99.99,,,-99.99,,2013-08-23 08:22:00,
2013-08-23 04:42:00,-999.0,-99.9,30.00,East,91,4.0,9.0,-999,-99.99,,,-99.99,,2013-08-23 08:42:00,
2013-08-23 04:52:00,-999.0,-99.9,30.00,East,88,6.0,8.0,-999,-99.99,,,-99.99,,2013-08-23 08:52:00,
2013-08-23 05:01:00,-999.0,-99.9,30.00,East,95,6.0,8.0,-999,-99.99,,,-99.99,,2013-08-23 09:01:00,
2013-08-23 05:21:00,-999.0,-99.9,29.99,ESE,120,6.0,9.0,-999,-99.99,,,-99.99,,2013-08-23 09:21:00,
2013-08-23 05:43:00,-999.0,-99.9,29.99,ESE,120,6.0,10.0,-999,-99.99,,,-99.99,,2013-08-23 09:43:00,
2013-08-23 06:13:00,-999.0,-99.9,29.99,ESE,110,6.0,10.0,-999,-99.99,,,-99.99,,2013-08-23 10:13:00,
2013-08-23 06:23:00,-999.0,-99.9,29.99,ESE,113,5.0,9.0,-999,-99.99,,,-99.99,,2013-08-23 10:23:00,
2013-08-23 06:42:00,-999.0,-99.9,30.00,ESE,119,6.0,9.0,-999,-99.99,,,-99.99,,2013-08-23 10:42:00,
2013-08-23 07:11:00,-999.0,-99.9,30.00,ESE,116,5.0,7.0,-999,-99.99,,,-99.99,,2013-08-23 11:11:00,
2013-08-23 07:22:00,-999.0,-99.9,30.00,ESE,109,4.0,8.0,-999,-99.99,,,-99.99,,2013-08-23 11:22:00,
2013-08-23 07:42:00,-999.0,-99.9,30.01,East,96,5.0,8.0,-999,-99.99,,,-99.99,,2013-08-23 11:42:00,
2013-08-23 07:53:00,80.0,-99.9,30.01,North,-999,-999.0,-999.0,-999,-99.99,,,-99.99,,2013-08-23 11:53:00,
2013-08-23 08:22:00,-999.0,-99.9,30.02,SE,125,6.0,9.0,-999,-99.99,,,-99.99,,2013-08-23 12:22:00,
2013-08-23 08:42:00,-999.0,-99.9,30.02,ESE,115,5.0,8.0,-999,-99.99,,,-99.99,,2013-08-23 12:42:00,
2013-08-23 09:12:00,-999.0,-99.9,30.02,ESE,123,6.0,9.0,-999,-99.99,,,-99.99,,2013-08-23 13:12:00,
2013-08-23 09:42:00,-999.0,-99.9,30.03,SE,129,7.0,9.0,-999,-99.99,,,-99.99,,2013-08-23 13:42:00,
2013-08-23 09:53:00,-999.0,-99.9,30.03,ESE,122,6.0,9.0,-999,-99.99,,,-99.99,,2013-08-23 13:53:00,
2013-08-23 10:02:00,-999.0,-99.9,30.03,ESE,120,5.0,9.0,-999,-99.99,,,-99.99,,2013-08-23 14:02:00,
2013-08-23 10:32:00,-999.0,-99.9,30.04,SE,124,4.0,6.0,-999,-99.99,,,-99.99,,2013-08-23 14:32:00,
2013-08-23 10:52:00,-999.0,-99.9,30.05,ESE,109,3.0,7.0,-999,-99.99,,,-99.99,,2013-08-23 14:52:00,
2013-08-23 11:11:00,-999.0,-99.9,30.05,East,91,5.0,7.0,-999,-99.99,,,-99.99,,2013-08-23 15:11:00,
2013-08-23 11:22:00,-999.0,-99.9,30.05,East,101,4.0,7.0,-999,-99.99,,,-99.99,,2013-08-23 15:22:00,
2013-08-23 11:54:00,-999.0,-99.9,30.05,SE,132,4.0,8.0,-999,-99.99,,,-99.99,,2013-08-23 15:54:00,
2013-08-23 12:14:00,-999.0,-99.9,30.04,ESE,116,4.0,7.0,-999,-99.99,,,-99.99,,2013-08-23 16:14:00,
2013-08-23 12:24:00,85.0,-99.9,30.04,North,-999,-999.0,-999.0,-999,-99.99,,,-99.99,,2013-08-23 16:24:00,
2013-08-23 12:34:00,-999.0,-99.9,30.04,East,100,4.0,6.0,-999,-99.99,,,-99.99,,2013-08-23 16:34:00,
2013-08-23 12:42:00,-999.0,-99.9,30.04,East,87,4.0,6.0,-999,-99.99,,,-99.99,,2013-08-23 16:42:00,
2013-08-23 12:53:00,-999.0,-99.9,30.04,East,90,3.0,6.0,-999,-99.99,,,-99.99,,2013-08-23 16:53:00,
2013-08-23 13:13:00,-999.0,-99.9,30.04,East,91,5.0,6.0,-999,-99.99,,,-99.99,,2013-08-23 17:13:00,
2013-08-23 13:24:00,-999.0,-99.9,30.04,East,82,4.0,6.0,-999,-99.99,,,-99.99,,2013-08-23 17:24:00,
2013-08-23 13:43:00,-999.0,-99.9,30.04,ENE,71,2.0,4.0,-999,-99.99,,,-99.99,,2013-08-23 17:43:00,
2013-08-23 14:02:00,-999.0,-99.9,30.03,NE,55,2.0,4.0,-999,-99.99,,,-99.99,,2013-08-23 18:02:00,
2013-08-23 14:12:00,-999.0,-99.9,30.03,East,84,1.0,4.0,-999,-99.99,,,-99.99,,2013-08-23 18:12:00,
2013-08-23 14:32:00,-999.0,-99.9,30.03,NE,41,2.0,5.0,-999,-99.99,,,-99.99,,2013-08-23 18:32:00,
2013-08-23 14:52:00,88.0,-99.9,30.02,North,-999,-999.0,-999.0,-999,-99.99,,,-99.99,,2013-08-23 18:52:00,
2013-08-23 15:12:00,-999.0,-99.9,30.01,ENE,76,2.0,5.0,-999,-99.99,,,-99.99,,2013-08-23 19:12:00,
2013-08-23 15:43:00,-999.0,-99.9,30.00,SSE,156,3.0,4.0,-999,-99.99,,,-99.99,,2013-08-23 19:43:00,
2013-08-23 15:52:00,-999.0,-99.9,29.99,SE,141,3.0,5.0,-999,-99.99,,,-99.99,,2013-08-23 19:52:00,
2013-08-23 16:12:00,-999.0,-99.9,30.00,East,87,4.0,5.0,-999,-99.99,,,-99.99,,2013-08-23 20:12:00,
2013-08-23 16:42:00,-999.0,-99.9,29.99,ESE,103,3.0,4.0,-999,-99.99,,,-99.99,,2013-08-23 20:42:00,
2013-08-23 17:12:00,-999.0,-99.9,29.99,WNW,302,11.0,13.0,-999,-99.99,,,-99.99,,2013-08-23 21:12:00,
2013-08-23 17:22:00,-999.0,-99.9,29.99,NW,311,11.0,19.0,-999,-99.99,,,-99.99,,2013-08-23 21:22:00,
2013-08-23 17:44:00,-999.0,-99.9,30.00,NW,304,11.0,14.0,-999,-99.99,,,-99.99,,2013-08-23 21:44:00,
2013-08-23 17:54:00,-999.0,-99.9,30.00,NNW,342,7.0,13.0,-999,-99.99,,,-99.99,,2013-08-23 21:54:00,
2013-08-23 18:33:00,-999.0,-99.9,30.00,NW,320,4.0,8.0,-999,-99.99,,,-99.99,,2013-08-23 22:33:00,
2013-08-23 18:43:00,-999.0,-99.9,30.01,NNE,13,4.0,7.0,-999,-99.99,,,-99.99,,2013-08-23 22:43:00,
2013-08-23 19:12:00,-999.0,-99.9,30.01,WNW,299,4.0,6.0,-999,-99.99,,,-99.99,,2013-08-23 23:12:00,
2013-08-23 19:33:00,-999.0,-99.9,30.01,NNW,329,5.0,9.0,-999,-99.99,,,-99.99,,2013-08-23 23:33:00,
2013-08-23 20:22:00,-999.0,-99.9,30.03,ENE,61,10.0,17.0,-999,-99.99,,,-99.99,,2013-08-24 00:22:00,
2013-08-23 20:43:00,-999.0,-99.9,30.02,East,86,14.0,18.0,-999,-99.99,,,-99.99,,2013-08-24 00:43:00,
2013-08-23 20:53:00,80.0,-99.9,30.02,North,-999,-999.0,-999.0,-999,-99.99,,,-99.99,,2013-08-24 00:53:00,
2013-08-23 21:11:00,-999.0,-99.9,30.03,East,88,13.0,18.0,-999,-99.99,,,-99.99,,2013-08-24 01:11:00,
2013-08-23 21:42:00,-999.0,-99.9,30.04,East,84,12.0,17.0,-999,-99.99,,,-99.99,,2013-08-24 01:42:00,
2013-08-23 21:53:00,-999.0,-99.9,30.04,East,89,10.0,17.0,-999,-99.99,,,-99.99,,2013-08-24 01:53:00,
2013-08-23 22:03:00,-999.0,-99.9,30.05,East,90,11.0,14.0,-999,-99.99,,,-99.99,,2013-08-24 02:03:00,
2013-08-23 22:12:00,-999.0,-99.9,30.05,East,86,9.0,13.0,-999,-99.99,,,-99.99,,2013-08-24 02:12:00,
2013-08-23 22:32:00,-999.0,-99.9,30.05,East,80,9.0,14.0,-999,-99.99,,,-99.99,,2013-08-24 02:32:00,
2013-08-23 22:42:00,-999.0,-99.9,30.05,East,79,10.0,14.0,-999,-99.99,,,-99.99,,2013-08-24 02:42:00,
2013-08-23 22:52:00,-999.0,-99.9,30.05,East,94,9.0,13.0,-999,-99.99,,,-99.99,,2013-08-24 02:52:00,
2013-08-23 23:02:00,-999.0,-99.9,30.05,East,100,6.0,12.0,-999,-99.99,,,-99.99,,2013-08-24 03:02:00,
2013-08-23 23:22:00,-999.0,-99.9,30.04,East,83,7.0,9.0,-999,-99.99,,,-99.99,,2013-08-24 03:22:00,
2013-08-23 23:34:00,-999.0,-99.9,30.04,East,100,5.0,9.0,-999,-99.99,,,-99.99,,2013-08-24 03:34:00,
2013-08-23 23:44:00,-999.0,-99.9,30.04,ESE,105,5.0,8.0,-999,-99.99,,,-99.99,,2013-08-24 03:44:00,
2013-08-23 23:55:00,-999.0,-99.9,30.05,East,91,7.0,10.0,-999,-99.99,,,-99.99,,2013-08-24 03:55:00,